CZ-6A DEB

Satellite information

Favourite Embed

Satellite Type and Status

DEBRISIN ORBIT

Key statistics

Satellite CZ-6A DEB at a glance.

Uptime

1128

Days in orbit

Revolutions

≈ 14.4

Per day

Orbit

SSO

Sun Synchronous Orbit

Inclination

98.7

Latest

Satellite identification and parameters

Extended collection of information and parameters for CZ-6A DEB.

Object identification

Identified? True

Debris? True

Object name: CZ-6A DEB

International designator: 2022-151AGL

Object number (NORAD): 56660

Object ID (CCSDS): 56660

Country: PEOPLES REPUBLIC OF CHINA (PRC)

Current information (Y/N): Y

RCS size: SMALL

Orbital parameters

Period: 100.313 minutes

Inclination: 98.6771 deg

SMA: 7151.534 km

Apoapsis: 847.604 km

Periapsis: 699.195 km

RAAN: 2.0126 deg

Eccentricy: 0.01037604

Argument of periapsis: 287.7134 deg

Mean anomaly: 71.2747 deg

Mean motion: 14.35502419 rev/day

Mean motion (dot): 0.00009971 rev/day2

B* drag term: 0.0032718634 1/REarth

Two-line elements (TLE)

Creation date: Dec. 11, 2025, 7:14 p.m.

Reference frame: TEME

Reference center: EARTH

Epoch: Dec. 11, 2025, 12:08 p.m. UTC

TLE line 0: 0 CZ-6A DEB

TLE line 1: 1 56660U 22151AGL 25345.50594385 .00009971 00000-0 32719-2 0 9992

TLE line 2: 2 56660 98.6771 2.0126 0103760 287.7134 71.2747 14.35502419137455

Live tracking on map

Real-time ground track for satellite CZ-6A DEB.

In-orbit conjunctions

A list of the most updated potential collisions computed for object CZ-6A DEB.

Target Orbit TCA Probability of collision Miss distance Type
COSMOS 2237 LEO 2025-05-05 18:43:57 0.0001336306 911.0 (m) PAYLOAD
METEOR 1-22 LEO 2025-01-22 14:26:25 0.0003028485 562.0 (m) PAYLOAD
DELTA 1 DEB SSO 2024-11-12 19:31:44 0.000150235 170.0 (m) DEBRIS

Associated space launch

Chinese satellite reported for atmospheric/ocean/environmental/spatial parameter research purposes, details TBD.

CZ-6A DEB was lifted into orbit during the mission ‘Long March 6A | Yunhai 3’, on board a Long March 6A space rocket.

The launch took place on Nov. 11, 2022, 10:52 p.m. from Launch Complex 9A.

For more information about the launch, click the button.

Launch to space Long March 6A | Yunhai 3
Long March 6A | Yunhai 3

Agency: N/A

Status: Launch Successful

Launch date: Nov. 11, 2022, 10:52 p.m. UTC

Rocket: Long March 6A

Launch pad: Launch Complex 9A

Location: Taiyuan Satellite Launch Center, People's Republic of China

...

Latest news about this satellite

There are no fresh news available about this satellite. Check back as we update our databases every day.


Newsletter sign-up

Weekly statistics, charts and insights to help you stay on top of the space industry.